| time (UTC) | temp F | wind direction | speed knots | gust knots | rain 1hr in | rain 24hr in | rain mn in | humidity % | barometer mb |
| 20260901043614 | 58 | 270 | 0.0 | 0.9 | 0.00 | 0.00 | 0.00 | 84 | 1009.5 |
| 20260901043112 | 58 | 270 | 0.0 | 0.0 | 0.00 | 0.00 | 0.00 | 84 | 1009.5 |
| 20260901042608 | 58 | 270 | 0.0 | 0.9 | 0.00 | 0.00 | 0.00 | 83 | 1009.5 |
| 20260901042112 | 59 | 270 | 0.0 | 1.7 | 0.00 | 0.00 | 0.00 | 83 | 1009.5 |
| 20260901041105 | 59 | 270 | 0.9 | 6.1 | 0.00 | 0.00 | 0.00 | 83 | 1009.6 |
| 20260901040603 | 59 | 267 | 0.9 | 6.1 | 0.00 | 0.00 | 0.00 | 83 | 1009.6 |
| 20260901040057 | 59 | 273 | 1.7 | 5.2 | 0.00 | 0.00 | 0.00 | 83 | 1009.6 |
| 20260901035554 | 59 | 273 | 2.6 | 6.1 | 0.00 | 0.00 | 0.00 | 82 | 1009.5 |
| 20260901035056 | 59 | 275 | 1.7 | 6.1 | 0.00 | 0.00 | 0.00 | 82 | 1009.5 |
| 20260901034050 | 59 | 270 | 2.6 | 7.0 | 0.00 | 0.00 | 0.00 | 82 | 1009.2 |
| 20260901033043 | 59 | 285 | 2.6 | 6.1 | 0.00 | 0.00 | 0.00 | 82 | 1009.2 |
| 20260901032541 | 59 | 265 | 1.7 | 4.3 | 0.00 | 0.00 | 0.00 | 82 | 1008.7 |
| 20260901032041 | 59 | 259 | 1.7 | 4.3 | 0.00 | 0.00 | 0.00 | 82 | 1008.7 |
| 20260901031537 | 59 | 277 | 1.7 | 4.3 | 0.00 | 0.00 | 0.00 | 81 | 1008.7 |
| 20260901031037 | 59 | 275 | 1.7 | 6.1 | 0.00 | 0.00 | 0.00 | 81 | 1008.5 |
| 20260901030534 | 60 | 275 | 1.7 | 6.1 | 0.00 | 0.00 | 0.00 | 81 | 1008.5 |
| 20260901030033 | 60 | 278 | 1.7 | 3.5 | 0.00 | 0.00 | 0.00 | 81 | 1008.5 |
| 20260901025031 | 60 | 278 | 2.6 | 5.2 | 0.00 | 0.00 | 0.00 | 80 | 1008.4 |
| 20260901024527 | 60 | 277 | 1.7 | 5.2 | 0.00 | 0.00 | 0.00 | 79 | 1008.4 |
| 20260901024024 | 60 | 276 | 1.7 | 5.2 | 0.00 | 0.00 | 0.00 | 79 | 1008.4 |
| 20260901023522 | 60 | 296 | 1.7 | 4.3 | 0.00 | 0.00 | 0.00 | 78 | 1008.4 |
| 20260901023019 | 61 | 286 | 0.9 | 3.5 | 0.00 | 0.00 | 0.00 | 78 | 1008.4 |
| 20260901022517 | 61 | 286 | 1.7 | 7.0 | 0.00 | 0.00 | 0.00 | 77 | 1008.4 |
| 20260901022014 | 61 | 288 | 1.7 | 7.0 | 0.00 | 0.00 | 0.00 | 77 | 1008.4 |
| 20260901021509 | 61 | 312 | 1.7 | 4.3 | 0.00 | 0.00 | 0.00 | 76 | 1008.4 |
| 20260901021007 | 62 | 312 | 1.7 | 7.0 | 0.00 | 0.00 | 0.00 | 76 | 1008.4 |
| 20260901020508 | 62 | 312 | 2.6 | 7.0 | 0.00 | 0.00 | 0.00 | 76 | 1008.4 |
| 20260901020009 | 62 | 275 | 2.6 | 8.7 | 0.00 | 0.00 | 0.00 | 76 | 1008.4 |
| 20260901015505 | 62 | 292 | 3.5 | 8.7 | 0.00 | 0.00 | 0.00 | 75 | 1008.2 |
| 20260901015001 | 63 | 283 | 3.5 | 7.8 | 0.00 | 0.00 | 0.00 | 74 | 1008.2 |
| 20260901013957 | 64 | 300 | 1.7 | 4.3 | 0.00 | 0.00 | 0.00 | 72 | 1008.3 |
| 20260901013458 | 64 | 281 | 2.6 | 5.2 | 0.00 | 0.00 | 0.00 | 72 | 1008.3 |
| 20260901012455 | 66 | 309 | 2.6 | 6.1 | 0.00 | 0.00 | 0.00 | 69 | 1008.1 |
| 20260901011954 | 66 | 340 | 2.6 | 6.1 | 0.00 | 0.00 | 0.00 | 68 | 1008.1 |
| 20260901011452 | 66 | 331 | 2.6 | 6.1 | 0.00 | 0.00 | 0.00 | 69 | 1008.1 |
| 20260901010951 | 66 | 319 | 2.6 | 6.1 | 0.00 | 0.00 | 0.00 | 69 | 1008.3 |
| 20260901010452 | 66 | 319 | 2.6 | 6.1 | 0.00 | 0.00 | 0.00 | 68 | 1008.3 |
| 20260901005944 | 67 | 318 | 2.6 | 6.1 | 0.00 | 0.00 | 0.00 | 68 | 1008.3 |
| 20260901005446 | 67 | 310 | 2.6 | 5.2 | 0.00 | 0.00 | 0.00 | 67 | 1008.2 |
| 20260901004947 | 67 | 313 | 2.6 | 7.0 | 0.00 | 0.00 | 0.00 | 66 | 1008.2 |
| 20260901004447 | 68 | 310 | 2.6 | 7.0 | 0.00 | 0.00 | 0.00 | 66 | 1008.2 |
| 20260901003946 | 68 | 275 | 2.6 | 7.0 | 0.00 | 0.00 | 0.00 | 65 | 1008.3 |
| 20260901003445 | 69 | 251 | 2.6 | 7.0 | 0.00 | 0.00 | 0.00 | 64 | 1008.3 |
| 20260901002943 | 69 | 350 | 3.5 | 7.8 | 0.00 | 0.00 | 0.00 | 65 | 1008.3 |
| 20260901002440 | 69 | 323 | 3.5 | 8.7 | 0.00 | 0.00 | 0.00 | 65 | 1008.3 |
| 20260901001934 | 69 | 324 | 3.5 | 8.7 | 0.00 | 0.00 | 0.00 | 63 | 1008.3 |
| 20260901001431 | 70 | 258 | 3.5 | 7.0 | 0.00 | 0.00 | 0.00 | 64 | 1008.3 |
| 20260901000930 | 69 | 313 | 3.5 | 9.6 | 0.00 | 0.00 | 0.00 | 64 | 1008.4 |
| 20260901000428 | 69 | 317 | 3.5 | 9.6 | 0.00 | 0.00 | 0.00 | 64 | 1008.4 |
| 20260831235924 | 69 | 321 | 3.5 | 8.7 | 0.00 | 0.00 | 0.00 | 64 | 1008.4 |
| 20260831234927 | 70 | 322 | 3.5 | 7.8 | 0.00 | 0.00 | 0.00 | 64 | 1008.3 |
| 20260831234425 | 69 | 315 | 4.3 | 7.8 | 0.00 | 0.00 | 0.00 | 65 | 1008.3 |
| 20260831233921 | 69 | 315 | 4.3 | 7.8 | 0.00 | 0.00 | 0.00 | 64 | 1008.5 |
| 20260831233422 | 69 | 288 | 3.5 | 7.8 | 0.00 | 0.00 | 0.00 | 64 | 1008.5 |
| 20260831232919 | 69 | 315 | 3.5 | 7.8 | 0.00 | 0.00 | 0.00 | 64 | 1008.5 |
| 20260831232417 | 70 | 313 | 3.5 | 8.7 | 0.00 | 0.00 | 0.00 | 63 | 1008.5 |
| 20260831231914 | 70 | 341 | 3.5 | 8.7 | 0.00 | 0.00 | 0.00 | 63 | 1008.5 |
| 20260831231414 | 69 | 308 | 4.3 | 8.7 | 0.00 | 0.00 | 0.00 | 64 | 1008.5 |
| 20260831230910 | 69 | 310 | 4.3 | 8.7 | 0.00 | 0.00 | 0.00 | 65 | 1008.6 |
| 20260831230414 | 70 | 307 | 4.3 | 8.7 | 0.00 | 0.00 | 0.00 | 64 | 1008.6 |
| 20260831225912 | 69 | 323 | 4.3 | 10.4 | 0.00 | 0.00 | 0.00 | 64 | 1008.6 |
| 20260831225407 | 69 | 315 | 4.3 | 10.4 | 0.00 | 0.00 | 0.00 | 64 | 1008.7 |
| 20260831224910 | 70 | 321 | 4.3 | 9.6 | 0.00 | 0.00 | 0.00 | 62 | 1008.7 |
| 20260831223405 | 71 | 313 | 4.3 | 8.7 | 0.00 | 0.00 | 0.00 | 61 | 1008.9 |
| 20260831222903 | 71 | 306 | 4.3 | 9.6 | 0.00 | 0.00 | 0.00 | 62 | 1008.9 |
| 20260831222401 | 70 | 326 | 4.3 | 9.6 | 0.00 | 0.00 | 0.00 | 62 | 1009.0 |
| 20260831221901 | 71 | 281 | 4.3 | 9.6 | 0.00 | 0.00 | 0.00 | 62 | 1009.0 |
| 20260831221358 | 71 | 321 | 4.3 | 9.6 | 0.00 | 0.00 | 0.00 | 61 | 1009.1 |
| 20260831220356 | 71 | 260 | 5.2 | 10.4 | 0.00 | 0.00 | 0.00 | 61 | 1009.1 |
| 20260831215356 | 73 | 317 | 3.5 | 8.7 | 0.00 | 0.00 | 0.00 | 58 | 1009.1 |
| 20260831214856 | 72 | 348 | 3.5 | 8.7 | 0.00 | 0.00 | 0.00 | 59 | 1009.1 |
| 20260831214352 | 72 | 331 | 3.5 | 8.7 | 0.00 | 0.00 | 0.00 | 59 | 1009.2 |
| 20260831213852 | 73 | 350 | 3.5 | 8.7 | 0.00 | 0.00 | 0.00 | 59 | 1009.2 |
| 20260831213351 | 73 | 347 | 3.5 | 8.7 | 0.00 | 0.00 | 0.00 | 58 | 1009.2 |
| 20260831212851 | 73 | 323 | 3.5 | 8.7 | 0.00 | 0.00 | 0.00 | 57 | 1009.2 |
| 20260831211850 | 73 | 306 | 3.5 | 7.8 | 0.00 | 0.00 | 0.00 | 58 | 1009.2 |
| 20260831211351 | 74 | 313 | 3.5 | 7.8 | 0.00 | 0.00 | 0.00 | 57 | 1009.2 |
| 20260831210848 | 74 | 30 | 3.5 | 8.7 | 0.00 | 0.00 | 0.00 | 57 | 1009.2 |
| 20260831210347 | 74 | 349 | 2.6 | 8.7 | 0.00 | 0.00 | 0.00 | 57 | 1009.2 |
| 20260831205847 | 74 | 319 | 2.6 | 9.6 | 0.00 | 0.00 | 0.00 | 58 | 1009.2 |
| 20260831205345 | 74 | 304 | 2.6 | 9.6 | 0.00 | 0.00 | 0.00 | 58 | 1009.2 |
| 20260831204844 | 74 | 306 | 2.6 | 6.1 | 0.00 | 0.00 | 0.00 | 58 | 1009.2 |
| 20260831204346 | 74 | 15 | 2.6 | 7.0 | 0.00 | 0.00 | 0.00 | 57 | 1009.2 |
| 20260831203844 | 74 | 343 | 2.6 | 7.0 | 0.00 | 0.00 | 0.00 | 57 | 1009.2 |
| 20260831203342 | 74 | 300 | 2.6 | 6.1 | 0.00 | 0.00 | 0.00 | 57 | 1009.2 |
| 20260831202844 | 74 | 322 | 2.6 | 6.1 | 0.00 | 0.00 | 0.00 | 57 | 1009.2 |
| 20260831202342 | 74 | 336 | 1.7 | 5.2 | 0.00 | 0.00 | 0.00 | 58 | 1009.2 |
| 20260831201840 | 74 | 0 | 1.7 | 6.1 | 0.00 | 0.00 | 0.00 | 58 | 1009.2 |
| 20260831200835 | 73 | 355 | 1.7 | 4.3 | 0.00 | 0.00 | 0.00 | 58 | 1009.3 |
| 20260831200334 | 73 | 355 | 1.7 | 4.3 | 0.00 | 0.00 | 0.00 | 60 | 1009.3 |
| 20260831195830 | 72 | 346 | 1.7 | 4.3 | 0.00 | 0.00 | 0.00 | 62 | 1009.7 |
| 20260831195324 | 71 | 321 | 0.9 | 4.3 | 0.00 | 0.00 | 0.00 | 61 | 1009.7 |
| 20260831194824 | 72 | 108 | 0.9 | 4.3 | 0.00 | 0.00 | 0.00 | 59 | 1009.8 |
| 20260831194321 | 72 | 341 | 1.7 | 4.3 | 0.00 | 0.00 | 0.00 | 62 | 1009.8 |
| 20260831193819 | 71 | 340 | 1.7 | 4.3 | 0.00 | 0.00 | 0.00 | 62 | 1009.8 |
| 20260831193317 | 71 | 341 | 1.7 | 4.3 | 0.00 | 0.00 | 0.00 | 63 | 1009.8 |
| 20260831192815 | 71 | 327 | 1.7 | 4.3 | 0.00 | 0.00 | 0.00 | 64 | 1010.1 |
| 20260831192315 | 70 | 325 | 1.7 | 4.3 | 0.00 | 0.00 | 0.00 | 64 | 1010.1 |
| 20260831191816 | 70 | 323 | 1.7 | 5.2 | 0.00 | 0.00 | 0.00 | 64 | 1010.1 |
| 20260831190809 | 68 | 35 | 0.9 | 3.5 | 0.00 | 0.00 | 0.00 | 67 | 1010.2 |
| 20260831190311 | 68 | 226 | 0.9 | 4.3 | 0.00 | 0.00 | 0.00 | 67 | 1010.2 |
| 20260831185805 | 69 | 344 | 1.7 | 4.3 | 0.00 | 0.00 | 0.00 | 67 | 1010.2 |
| 20260831184802 | 67 | 41 | 1.7 | 6.1 | 0.00 | 0.00 | 0.00 | 70 | 1010.2 |
| 20260831184300 | 66 | 71 | 1.7 | 4.3 | 0.00 | 0.00 | 0.00 | 70 | 1010.3 |
| 20260831183800 | 66 | 38 | 1.7 | 5.2 | 0.00 | 0.00 | 0.00 | 69 | 1010.3 |
| 20260831183255 | 66 | 335 | 1.7 | 5.2 | 0.00 | 0.00 | 0.00 | 70 | 1010.3 |
| 20260831182755 | 66 | 47 | 1.7 | 4.3 | 0.00 | 0.00 | 0.00 | 71 | 1010.6 |
| 20260831182256 | 65 | 30 | 1.7 | 4.3 | 0.00 | 0.00 | 0.00 | 71 | 1010.6 |
| 20260831181759 | 65 | 28 | 1.7 | 6.1 | 0.00 | 0.00 | 0.00 | 71 | 1010.6 |
| 20260831181253 | 65 | 331 | 1.7 | 6.1 | 0.00 | 0.00 | 0.00 | 72 | 1010.5 |
| 20260831180752 | 65 | 74 | 1.7 | 5.2 | 0.00 | 0.00 | 0.00 | 72 | 1010.5 |
| 20260831180250 | 65 | 36 | 1.7 | 4.3 | 0.00 | 0.00 | 0.00 | 73 | 1010.5 |
| 20260831175748 | 64 | 5 | 1.7 | 4.3 | 0.00 | 0.00 | 0.00 | 75 | 1010.3 |
| 20260831174246 | 62 | 272 | 0.9 | 3.5 | 0.00 | 0.00 | 0.00 | 77 | 1010.1 |
| 20260831173743 | 62 | 271 | 0.9 | 2.6 | 0.00 | 0.00 | 0.00 | 76 | 1010.1 |
| 20260831172741 | 61 | 271 | 0.9 | 3.5 | 0.00 | 0.00 | 0.00 | 78 | 1010.2 |
| 20260831172239 | 61 | 271 | 0.9 | 3.5 | 0.00 | 0.00 | 0.00 | 78 | 1010.2 |
| 20260831171741 | 60 | 271 | 0.9 | 3.5 | 0.00 | 0.00 | 0.00 | 79 | 1010.2 |
| 20260831171236 | 60 | 271 | 0.9 | 3.5 | 0.00 | 0.00 | 0.00 | 79 | 1010.2 |
| 20260831170737 | 60 | 271 | 0.9 | 3.5 | 0.00 | 0.00 | 0.00 | 80 | 1010.2 |
| 20260831170236 | 60 | 271 | 0.9 | 3.5 | 0.00 | 0.00 | 0.00 | 80 | 1010.2 |
| 20260831165740 | 59 | 271 | 0.9 | 4.3 | 0.00 | 0.00 | 0.00 | 80 | 1010.1 |
| 20260831165234 | 59 | 271 | 1.7 | 4.3 | 0.00 | 0.00 | 0.00 | 80 | 1010.1 |
| 20260831164232 | 59 | 271 | 0.9 | 3.5 | 0.00 | 0.00 | 0.00 | 80 | 1010.1 |
| 20260831163732 | 59 | 271 | 0.0 | 2.6 | 0.00 | 0.00 | 0.00 | 81 | 1010.1 |
| 20260831163232 | 59 | 271 | 0.0 | 1.7 | 0.00 | 0.00 | 0.00 | 81 | 1010.1 |
| 20260831162728 | 59 | 271 | 0.9 | 4.3 | 0.00 | 0.00 | 0.00 | 81 | 1010.0 |
| 20260831162232 | 59 | 271 | 1.7 | 4.3 | 0.00 | 0.00 | 0.00 | 81 | 1010.0 |
| 20260831161728 | 59 | 271 | 0.9 | 3.5 | 0.00 | 0.00 | 0.00 | 81 | 1010.0 |
| 20260831161222 | 59 | 271 | 0.0 | 3.5 | 0.00 | 0.00 | 0.00 | 82 | 1009.9 |
| 20260831160720 | 58 | 271 | 0.0 | 0.0 | 0.00 | 0.00 | 0.00 | 82 | 1009.9 |
| 20260831160219 | 58 | 271 | 0.0 | 0.0 | 0.00 | 0.00 | 0.00 | 82 | 1009.9 |
| 20260831155214 | 58 | 271 | 0.0 | 0.0 | 0.00 | 0.00 | 0.00 | 83 | 1009.7 |
| 20260831154710 | 58 | 271 | 0.0 | 0.0 | 0.00 | 0.00 | 0.00 | 84 | 1009.7 |
| 20260831154206 | 58 | 271 | 0.0 | 0.0 | 0.00 | 0.00 | 0.00 | 84 | 1009.7 |
| 20260831153709 | 58 | 271 | 0.0 | 0.0 | 0.00 | 0.00 | 0.00 | 84 | 1009.7 |
| 20260831153206 | 58 | 271 | 0.0 | 0.0 | 0.00 | 0.00 | 0.00 | 85 | 1009.7 |
| 20260831152659 | 58 | 271 | 0.0 | 0.0 | 0.00 | 0.00 | 0.00 | 84 | 1009.7 |
| 20260831152157 | 57 | 271 | 0.0 | 0.0 | 0.00 | 0.00 | 0.00 | 84 | 1009.7 |
| 20260831151655 | 57 | 271 | 0.0 | 0.0 | 0.00 | 0.00 | 0.00 | 85 | 1009.7 |
| 20260831151149 | 57 | 271 | 0.0 | 0.0 | 0.00 | 0.00 | 0.00 | 85 | 1009.6 |
| 20260831150645 | 57 | 271 | 0.0 | 0.0 | 0.00 | 0.00 | 0.00 | 85 | 1009.6 |
| 20260831150144 | 57 | 271 | 0.0 | 0.0 | 0.00 | 0.00 | 0.00 | 85 | 1009.6 |
| 20260831145145 | 57 | 271 | 0.0 | 1.7 | 0.00 | 0.00 | 0.00 | 85 | 1009.6 |
| 20260831144638 | 57 | 271 | 0.9 | 2.6 | 0.00 | 0.00 | 0.00 | 85 | 1009.6 |
| 20260831143638 | 57 | 271 | 0.9 | 2.6 | 0.00 | 0.00 | 0.00 | 85 | 1009.4 |
| 20260831142636 | 57 | 271 | 0.9 | 3.5 | 0.00 | 0.00 | 0.00 | 86 | 1009.3 |
| 20260831141632 | 57 | 271 | 0.9 | 3.5 | 0.00 | 0.00 | 0.00 | 86 | 1009.3 |
| 20260831141129 | 57 | 271 | 0.9 | 3.5 | 0.00 | 0.00 | 0.00 | 86 | 1009.0 |
| 20260831140630 | 57 | 271 | 0.9 | 2.6 | 0.00 | 0.00 | 0.00 | 86 | 1009.0 |
| 20260831140127 | 57 | 271 | 0.9 | 2.6 | 0.00 | 0.00 | 0.00 | 86 | 1009.0 |
| 20260831135622 | 57 | 271 | 0.9 | 1.7 | 0.00 | 0.00 | 0.00 | 87 | 1008.4 |
| 20260831135120 | 57 | 271 | 0.0 | 1.7 | 0.00 | 0.00 | 0.00 | 87 | 1008.4 |
| 20260831134622 | 57 | 271 | 0.0 | 1.7 | 0.00 | 0.00 | 0.00 | 87 | 1008.4 |
| 20260831133617 | 57 | 271 | 0.0 | 1.7 | 0.00 | 0.00 | 0.00 | 87 | 1008.3 |
| 20260831133113 | 57 | 271 | 0.0 | 0.9 | 0.00 | 0.00 | 0.00 | 87 | 1008.3 |
| 20260831132610 | 57 | 271 | 0.0 | 0.9 | 0.00 | 0.00 | 0.00 | 87 | 1008.4 |
| 20260831131610 | 57 | 271 | 0.0 | 2.6 | 0.00 | 0.00 | 0.00 | 87 | 1008.4 |
| 20260831131108 | 57 | 271 | 0.0 | 0.0 | 0.00 | 0.00 | 0.00 | 87 | 1008.5 |
| 20260831130602 | 57 | 271 | 0.0 | 0.0 | 0.00 | 0.00 | 0.00 | 87 | 1008.5 |
| 20260831130100 | 57 | 271 | 0.0 | 0.0 | 0.00 | 0.00 | 0.00 | 87 | 1008.5 |
| 20260831125556 | 57 | 271 | 0.0 | 0.0 | 0.00 | 0.00 | 0.00 | 87 | 1008.5 |
| 20260831125059 | 57 | 271 | 0.0 | 0.0 | 0.00 | 0.00 | 0.00 | 86 | 1008.5 |
| 20260831124555 | 57 | 271 | 0.0 | 0.0 | 0.00 | 0.00 | 0.00 | 86 | 1008.5 |
| 20260831124055 | 57 | 271 | 0.0 | 0.0 | 0.00 | 0.00 | 0.00 | 86 | 1008.3 |
| 20260831123552 | 57 | 271 | 0.0 | 0.0 | 0.00 | 0.00 | 0.00 | 86 | 1008.3 |
| 20260831123050 | 57 | 271 | 0.0 | 0.0 | 0.00 | 0.00 | 0.00 | 86 | 1008.3 |
| 20260831122547 | 57 | 271 | 0.0 | 1.7 | 0.00 | 0.00 | 0.00 | 86 | 1008.0 |
| 20260831122048 | 57 | 271 | 0.9 | 1.7 | 0.00 | 0.00 | 0.00 | 87 | 1008.0 |
| 20260831121548 | 57 | 271 | 0.0 | 1.7 | 0.00 | 0.00 | 0.00 | 87 | 1008.0 |
| 20260831121053 | 57 | 271 | 0.0 | 0.9 | 0.00 | 0.00 | 0.00 | 87 | 1008.0 |
| 20260831120542 | 57 | 271 | 0.0 | 0.9 | 0.00 | 0.00 | 0.00 | 87 | 1008.0 |
| 20260831120037 | 58 | 271 | 0.0 | 1.7 | 0.00 | 0.00 | 0.00 | 86 | 1008.0 |
| 20260831115034 | 58 | 271 | 0.0 | 1.7 | 0.00 | 0.00 | 0.00 | 86 | 1008.1 |
| 20260831113524 | 58 | 271 | 0.0 | 1.7 | 0.00 | 0.00 | 0.00 | 86 | 1008.0 |
| 20260831113023 | 58 | 271 | 0.9 | 1.7 | 0.00 | 0.00 | 0.00 | 86 | 1008.0 |
| 20260831112525 | 58 | 271 | 0.0 | 1.7 | 0.00 | 0.00 | 0.00 | 86 | 1008.1 |
| 20260831112021 | 58 | 271 | 0.0 | 1.7 | 0.00 | 0.00 | 0.00 | 86 | 1008.1 |
| 20260831111518 | 58 | 271 | 0.0 | 1.7 | 0.00 | 0.00 | 0.00 | 86 | 1008.1 |
| 20260831110512 | 58 | 271 | 0.0 | 1.7 | 0.00 | 0.00 | 0.00 | 87 | 1008.1 |
| 20260831110012 | 58 | 271 | 0.0 | 0.9 | 0.00 | 0.00 | 0.00 | 87 | 1008.1 |
| 20260831105509 | 58 | 271 | 0.0 | 0.0 | 0.00 | 0.00 | 0.00 | 87 | 1008.2 |
| 20260831105010 | 58 | 271 | 0.0 | 0.0 | 0.00 | 0.00 | 0.00 | 87 | 1008.2 |
| 20260831104506 | 58 | 271 | 0.0 | 0.0 | 0.00 | 0.00 | 0.00 | 87 | 1008.2 |
| 20260831104002 | 58 | 271 | 0.0 | 1.7 | 0.00 | 0.00 | 0.00 | 87 | 1008.2 |
| 20260831103500 | 58 | 271 | 0.9 | 3.5 | 0.00 | 0.00 | 0.00 | 87 | 1008.2 |
| 20260831102955 | 58 | 271 | 0.9 | 3.5 | 0.00 | 0.00 | 0.00 | 87 | 1008.2 |
| 20260831102455 | 58 | 271 | 0.0 | 2.6 | 0.00 | 0.00 | 0.00 | 87 | 1008.1 |
| 20260831101956 | 58 | 271 | 0.0 | 0.0 | 0.00 | 0.00 | 0.00 | 87 | 1008.1 |
| 20260831101456 | 58 | 271 | 0.0 | 0.0 | 0.00 | 0.00 | 0.00 | 87 | 1008.1 |
| 20260831100951 | 58 | 271 | 0.0 | 0.0 | 0.00 | 0.00 | 0.00 | 87 | 1008.1 |
| 20260831100453 | 58 | 271 | 0.0 | 0.0 | 0.00 | 0.00 | 0.00 | 87 | 1008.1 |
| 20260831095948 | 58 | 271 | 0.0 | 0.0 | 0.00 | 0.00 | 0.00 | 86 | 1008.1 |
| 20260831095447 | 58 | 271 | 0.0 | 0.0 | 0.00 | 0.00 | 0.00 | 87 | 1008.2 |
| 20260831094947 | 58 | 271 | 0.0 | 0.0 | 0.00 | 0.00 | 0.00 | 87 | 1008.2 |
| 20260831094445 | 58 | 271 | 0.0 | 0.0 | 0.00 | 0.00 | 0.00 | 87 | 1008.2 |
| 20260831093438 | 58 | 271 | 0.0 | 1.7 | 0.00 | 0.00 | 0.00 | 87 | 1008.3 |
| 20260831092939 | 58 | 271 | 0.9 | 2.6 | 0.00 | 0.00 | 0.00 | 87 | 1008.3 |
| 20260831092435 | 58 | 271 | 0.9 | 3.5 | 0.00 | 0.00 | 0.00 | 87 | 1008.3 |
| 20260831091934 | 58 | 271 | 0.9 | 3.5 | 0.00 | 0.00 | 0.00 | 87 | 1008.3 |
| 20260831091434 | 58 | 271 | 0.9 | 2.6 | 0.00 | 0.00 | 0.00 | 87 | 1008.3 |
| 20260831090932 | 58 | 271 | 0.9 | 2.6 | 0.00 | 0.00 | 0.00 | 87 | 1008.3 |
| 20260831085926 | 58 | 271 | 0.0 | 2.6 | 0.00 | 0.00 | 0.00 | 87 | 1008.3 |
| 20260831085420 | 58 | 271 | 0.9 | 2.6 | 0.00 | 0.00 | 0.00 | 87 | 1008.4 |
| 20260831084922 | 58 | 271 | 0.9 | 3.5 | 0.00 | 0.00 | 0.00 | 87 | 1008.4 |
| 20260831084417 | 58 | 271 | 0.9 | 3.5 | 0.00 | 0.00 | 0.00 | 87 | 1008.4 |
| 20260831082914 | 58 | 271 | 1.7 | 3.5 | 0.00 | 0.00 | 0.00 | 88 | 1008.4 |
| 20260831082411 | 58 | 271 | 1.7 | 3.5 | 0.00 | 0.00 | 0.00 | 88 | 1008.5 |
| 20260831081911 | 58 | 271 | 1.7 | 3.5 | 0.00 | 0.00 | 0.00 | 88 | 1008.5 |
| 20260831081409 | 58 | 271 | 1.7 | 3.5 | 0.00 | 0.00 | 0.00 | 88 | 1008.5 |
| 20260831080913 | 58 | 271 | 0.9 | 3.5 | 0.00 | 0.00 | 0.00 | 88 | 1008.5 |
| 20260831080408 | 58 | 271 | 0.9 | 2.6 | 0.00 | 0.00 | 0.00 | 88 | 1008.5 |
| 20260831075908 | 58 | 271 | 0.9 | 3.5 | 0.00 | 0.00 | 0.00 | 88 | 1008.5 |
| 20260831075406 | 58 | 271 | 1.7 | 3.5 | 0.00 | 0.00 | 0.00 | 88 | 1008.5 |
| 20260831074908 | 58 | 271 | 0.9 | 2.6 | 0.00 | 0.00 | 0.00 | 88 | 1008.5 |
| 20260831074409 | 58 | 269 | 0.9 | 2.6 | 0.00 | 0.00 | 0.00 | 88 | 1008.5 |
| 20260831073405 | 58 | 269 | 0.9 | 3.5 | 0.00 | 0.00 | 0.00 | 88 | 1008.5 |
| 20260831072900 | 58 | 269 | 1.7 | 5.2 | 0.00 | 0.00 | 0.00 | 88 | 1008.5 |
| 20260831072400 | 58 | 268 | 1.7 | 5.2 | 0.00 | 0.00 | 0.00 | 89 | 1008.4 |
| 20260831071900 | 58 | 279 | 0.9 | 3.5 | 0.00 | 0.00 | 0.00 | 89 | 1008.4 |
| 20260831071400 | 58 | 273 | 0.9 | 3.5 | 0.00 | 0.00 | 0.00 | 89 | 1008.5 |
| 20260831070858 | 58 | 273 | 1.7 | 3.5 | 0.00 | 0.00 | 0.00 | 90 | 1008.5 |
| 20260831070352 | 58 | 273 | 1.7 | 5.2 | 0.00 | 0.00 | 0.00 | 90 | 1008.5 |
| 20260831065849 | 58 | 273 | 0.9 | 5.2 | 0.00 | 0.00 | 0.00 | 90 | 1008.4 |
| 20260831065346 | 58 | 325 | 0.9 | 2.6 | 0.00 | 0.00 | 0.00 | 90 | 1008.4 |
| 20260831064850 | 58 | 325 | 0.9 | 1.7 | 0.00 | 0.00 | 0.00 | 90 | 1008.4 |
| 20260831064422 | 58 | 325 | 0.9 | 3.5 | 0.00 | 0.00 | 0.00 | 90 | 1008.4 |
| 20260831063844 | 58 | 325 | 1.7 | 3.5 | 0.00 | 0.00 | 0.00 | 90 | 1008.4 |
| 20260831063338 | 58 | 325 | 1.7 | 3.5 | 0.00 | 0.00 | 0.00 | 90 | 1008.4 |
| 20260831062836 | 57 | 325 | 0.9 | 3.5 | 0.00 | 0.00 | 0.00 | 90 | 1008.5 |
| 20260831062337 | 57 | 325 | 0.0 | 2.6 | 0.00 | 0.00 | 0.00 | 90 | 1008.5 |
| 20260831061836 | 57 | 325 | 0.0 | 0.0 | 0.00 | 0.00 | 0.00 | 90 | 1008.5 |
| 20260831061325 | 57 | 325 | 0.0 | 0.0 | 0.00 | 0.00 | 0.00 | 90 | 1008.5 |
| 20260831060326 | 57 | 325 | 0.0 | 0.0 | 0.00 | 0.00 | 0.00 | 90 | 1008.5 |
| 20260831055819 | 57 | 325 | 0.0 | 0.0 | 0.00 | 0.00 | 0.00 | 90 | 1008.5 |
| 20260831055317 | 57 | 325 | 0.0 | 0.0 | 0.00 | 0.00 | 0.00 | 90 | 1008.5 |
| 20260831054813 | 57 | 325 | 0.0 | 0.0 | 0.00 | 0.00 | 0.00 | 90 | 1008.5 |
| 20260831054312 | 57 | 325 | 0.0 | 0.0 | 0.00 | 0.00 | 0.00 | 90 | 1008.5 |
| 20260831053811 | 57 | 325 | 0.0 | 3.5 | 0.00 | 0.00 | 0.00 | 90 | 1008.5 |
| 20260831053314 | 57 | 325 | 0.0 | 3.5 | 0.00 | 0.00 | 0.00 | 90 | 1008.5 |
| 20260831052811 | 58 | 325 | 0.0 | 0.0 | 0.00 | 0.00 | 0.00 | 90 | 1008.9 |
| 20260831052306 | 58 | 325 | 0.0 | 1.7 | 0.00 | 0.00 | 0.00 | 89 | 1008.9 |
| 20260831051257 | 58 | 325 | 0.9 | 1.7 | 0.00 | 0.00 | 0.00 | 89 | 1008.7 |
| 20260831050757 | 58 | 325 | 0.9 | 1.7 | 0.00 | 0.00 | 0.00 | 89 | 1008.7 |
| 20260831045756 | 58 | 325 | 0.0 | 1.7 | 0.00 | 0.00 | 0.00 | 88 | 1008.6 |
| 20260831045256 | 58 | 325 | 0.9 | 2.6 | 0.00 | 0.00 | 0.00 | 88 | 1008.6 |
| 20260831044755 | 58 | 325 | 0.9 | 2.6 | 0.00 | 0.00 | 0.00 | 88 | 1008.6 |
| 20260831044247 | 58 | 325 | 0.9 | 3.5 | 0.00 | 0.00 | 0.00 | 88 | 1008.5 |
| 20260831043746 | 59 | 325 | 0.9 | 3.5 | 0.00 | 0.00 | 0.00 | 88 | 1008.5 |